Location: Unspecified
(0.0000°N, 0.0000°E)
Time: 13:50:13
(UTC+00:00)

Explorer 11/Cluster Stage 4 - Pass Details

Date: 01 March 2024
Orbit: 465 x 1219 km, 28.8° (Epoch: 24 April)

Event Time Altitude Azimuth Distance (km) Brightness Sun altitude
Exits shadow 03:31:28 10° 26° (NNE) 2,837 9.5 -39.8°
Drops below altitude 10° 03:31:55 10° 29° (NNE) 2,849 9.6 -39.7°
Sets 03:37:14 0° 65° (ENE) 3,584 10.6 -38.4°
